Hourly Data Report for September 21, 2016

All times are specified in Local Standard Time (LST). Add 1 hour to adjust for Daylight Saving Time where and when it is observed.

CHARLOTTETOWN A
PRINCE EDWARD ISLAND

46°17'21.000" N
63°07'09.000" W
48.50 m
8300301
71706
YYG

Download Data

Hourly Data (September 2016)
Hourly Data Report for September 21, 2016
Temp Definition
°C
Dew Point Temp Definition
°C
Rel Hum Definition
%
Wind Dir Definition
10's deg

Wind Spd Definition
km/h
Visibility Definition
km
Stn Press Definition
kPa
Hmdx Definition


Wind Chill Definition


Weather Definition


TIME
00:00 Legend Double Dagger 18.1 17.1 94 24 22 24.1 100.88     LegendNANA
01:00 Legend Double Dagger 17.7 16.7 94 25 17 16.1 100.86     LegendNANA
02:00 Legend Double Dagger 17.5 16.7 95 26 19 12.9 100.88     Cloudy
03:00 Legend Double Dagger 17.4 16.8 96 24 16 12.9 100.87     LegendNANA
04:00 Legend Double Dagger 17.4 16.6 95 26 16 12.9 100.88     LegendNANA
05:00 Legend Double Dagger 16.9 16.1 95 24 12 16.1 100.89     Mostly Cloudy
06:00 Legend Double Dagger 16.6 16.0 96 25 12 16.1 100.89     LegendNANA
07:00 Legend Double Dagger 16.9 16.3 96 25 12 19.3 100.93     LegendNANA
08:00 Legend Double Dagger 17.9 16.4 91 27 16 24.1 100.95     Mostly Cloudy
09:00 Legend Double Dagger 19.1 16.4 84 28 14 24.1 100.96     LegendNANA
10:00 Legend Double Dagger 20.1 15.6 75 27 17 24.1 100.98     LegendNANA
11:00 Legend Double Dagger 20.8 15.9 73 25 15 24.1 100.95 25   Mainly Clear
12:00 Legend Double Dagger 21.4 15.3 68 22 23 24.1 100.92 26   LegendNANA
13:00 Legend Double Dagger 21.0 14.0 64 24 21 24.1 100.89     LegendNANA
14:00 Legend Double Dagger 22.9 9.5 42 26 28 24.1 100.85     Mainly Clear
15:00 Legend Double Dagger 23.0 8.9 40 28 27 24.1 100.83     LegendNANA
16:00 Legend Double Dagger 23.0 8.5 39 26 21 24.1 100.82     LegendNANA
17:00 Legend Double Dagger 22.2 8.5 41 26 14 24.1 100.83     Mainly Clear
18:00 Legend Double Dagger 20.0 10.5 54 24 12 24.1 100.83     LegendNANA
19:00 Legend Double Dagger 18.3 12.4 68 25 13 24.1 100.90     LegendNANA
20:00 Legend Double Dagger 17.2 12.8 75 25 12 24.1 100.94     Mainly Clear
21:00 Legend Double Dagger 16.3 12.7 79 25 10 24.1 100.92     LegendNANA
22:00 Legend Double Dagger 15.6 12.9 84 24 13 24.1 100.93     LegendNANA
23:00 Legend Double Dagger 15.3 12.8 85 24 13 24.1 100.92     Mainly Clear

Notes on Data Quality.

Legend

  • E = Estimated
  • M = Missing
  • NA = Not Available
  • ‡ = Partner data that is not subject to review by the National Climate Archives
Date modified: